Data supplied by UK-AIR on 31/3/2021
All Data GMT hour ending 
Status: R =Ratified P=Provisional,P*=As supplied
,,Bush Estate,,,,,,,,,,,,,,,,,,,,,,,
Date,time,"Nitric oxide",status,unit,"Nitrogen dioxide",status,unit,"Nitrogen oxides as nitrogen dioxide",status,unit,"Ozone",status,unit
 
01-01-2020,01:00,0.42584,R,ugm-3,3.31386,R,ugm-3,3.96681,R,ugm-3,53.81738,R,ugm-3
01-01-2020,02:00,,,,,,,,,,52.08777,R,ugm-3
01-01-2020,03:00,0.28390,R,ugm-3,3.29711,R,ugm-3,3.73241,R,ugm-3,51.33938,R,ugm-3
01-01-2020,04:00,0.46133,R,ugm-3,3.18732,R,ugm-3,3.89468,R,ugm-3,50.29164,R,ugm-3
01-01-2020,05:00,0.39036,R,ugm-3,3.94526,R,ugm-3,4.54380,R,ugm-3,48.14626,R,ugm-3
01-01-2020,06:00,0.56779,R,ugm-3,4.59278,R,ugm-3,5.46338,R,ugm-3,46.15056,R,ugm-3
01-01-2020,07:00,0.49682,R,ugm-3,3.94430,R,ugm-3,4.70608,R,ugm-3,46.84906,R,ugm-3
01-01-2020,08:00,0.39036,R,ugm-3,2.48475,R,ugm-3,3.08329,R,ugm-3,50.99014,R,ugm-3
01-01-2020,09:00,0.60328,R,ugm-3,2.53693,R,ugm-3,3.46194,R,ugm-3,48.89465,R,ugm-3
01-01-2020,10:00,0.39036,R,ugm-3,2.53885,R,ugm-3,3.13739,R,ugm-3,48.74497,R,ugm-3
01-01-2020,11:00,0.46133,R,ugm-3,2.91686,R,ugm-3,3.62422,R,ugm-3,47.79702,R,ugm-3
01-01-2020,12:00,0.60328,R,ugm-3,2.86149,R,ugm-3,3.78650,R,ugm-3,47.69723,R,ugm-3
01-01-2020,13:00,0.42584,R,ugm-3,3.07946,R,ugm-3,3.73241,R,ugm-3,46.15056,R,ugm-3
01-01-2020,14:00,0.56779,R,ugm-3,3.94366,R,ugm-3,4.81426,R,ugm-3,43.90540,R,ugm-3
01-01-2020,15:00,0.46133,R,ugm-3,4.32327,R,ugm-3,5.03063,R,ugm-3,42.70798,R,ugm-3
01-01-2020,16:00,0.56779,R,ugm-3,4.48459,R,ugm-3,5.35519,R,ugm-3,41.95959,R,ugm-3
01-01-2020,17:00,0.39036,R,ugm-3,4.43210,R,ugm-3,5.03063,R,ugm-3,40.86196,R,ugm-3
01-01-2020,18:00,0.49682,R,ugm-3,4.70160,R,ugm-3,5.46338,R,ugm-3,45.75142,R,ugm-3
01-01-2020,19:00,0.46133,R,ugm-3,4.59374,R,ugm-3,5.30110,R,ugm-3,45.60175,R,ugm-3
01-01-2020,20:00,0.46133,R,ugm-3,3.94462,R,ugm-3,4.65198,R,ugm-3,47.94669,R,ugm-3
01-01-2020,21:00,0.39036,R,ugm-3,3.83708,R,ugm-3,4.43561,R,ugm-3,47.99659,R,ugm-3
01-01-2020,22:00,0.42584,R,ugm-3,4.48587,R,ugm-3,5.13882,R,ugm-3,44.45422,R,ugm-3
01-01-2020,23:00,0.53230,R,ugm-3,3.45715,R,ugm-3,4.27333,R,ugm-3,44.80347,R,ugm-3
01-01-2020,24:00,0.42584,R,ugm-3,3.56629,R,ugm-3,4.21924,R,ugm-3,45.35228,R,ugm-3
02-01-2020,01:00,0.42605,R,ugm-3,3.31458,R,ugm-3,3.96785,R,ugm-3,49.55988,R,ugm-3
02-01-2020,02:00,,,,,,,,,,54.78197,R,ugm-3
02-01-2020,03:00,0.24853,R,ugm-3,1.89142,R,ugm-3,2.27250,R,ugm-3,55.82971,R,ugm-3
02-01-2020,04:00,0.31954,R,ugm-3,1.62022,R,ugm-3,2.11017,R,ugm-3,56.12906,R,ugm-3
02-01-2020,05:00,0.39055,R,ugm-3,1.67366,R,ugm-3,2.27250,R,ugm-3,59.52175,R,ugm-3
02-01-2020,06:00,0.42605,R,ugm-3,1.07815,R,ugm-3,1.73143,R,ugm-3,61.71702,R,ugm-3
02-01-2020,07:00,0.42605,R,ugm-3,1.13226,R,ugm-3,1.78553,R,ugm-3,62.46541,R,ugm-3
02-01-2020,08:00,0.31954,R,ugm-3,0.97094,R,ugm-3,1.46089,R,ugm-3,65.60864,R,ugm-3
02-01-2020,09:00,0.28404,R,ugm-3,0.86305,R,ugm-3,1.29857,R,ugm-3,68.55230,R,ugm-3
02-01-2020,10:00,0.21303,R,ugm-3,0.80961,R,ugm-3,1.13625,R,ugm-3,70.34843,R,ugm-3
02-01-2020,11:00,0.24853,R,ugm-3,0.70107,R,ugm-3,1.08214,R,ugm-3,71.94499,R,ugm-3
02-01-2020,12:00,0.28404,R,ugm-3,0.75484,R,ugm-3,1.19036,R,ugm-3,71.74542,R,ugm-3
02-01-2020,13:00,0.49706,R,ugm-3,0.91517,R,ugm-3,1.67732,R,ugm-3,71.04692,R,ugm-3
02-01-2020,14:00,0.46156,R,ugm-3,1.34836,R,ugm-3,2.05607,R,ugm-3,67.45466,R,ugm-3
02-01-2020,15:00,0.28404,R,ugm-3,1.56645,R,ugm-3,2.00196,R,ugm-3,67.80391,R,ugm-3
02-01-2020,16:00,0.14202,R,ugm-3,1.24313,R,ugm-3,1.46089,R,ugm-3,67.65423,R,ugm-3
02-01-2020,17:00,0.49706,R,ugm-3,1.67267,R,ugm-3,2.43482,R,ugm-3,67.25509,R,ugm-3
02-01-2020,18:00,0.42605,R,ugm-3,1.40279,R,ugm-3,2.05607,R,ugm-3,66.25724,R,ugm-3
02-01-2020,19:00,0.42605,R,ugm-3,1.45690,R,ugm-3,2.11017,R,ugm-3,66.40692,R,ugm-3
02-01-2020,20:00,0.35505,R,ugm-3,1.24114,R,ugm-3,1.78553,R,ugm-3,66.35703,R,ugm-3
02-01-2020,21:00,0.35505,R,ugm-3,1.07882,R,ugm-3,1.62321,R,ugm-3,65.35918,R,ugm-3
02-01-2020,22:00,0.24853,R,ugm-3,0.86339,R,ugm-3,1.24446,R,ugm-3,68.10326,R,ugm-3
02-01-2020,23:00,0.28404,R,ugm-3,0.97127,R,ugm-3,1.40678,R,ugm-3,65.00993,R,ugm-3
02-01-2020,24:00,0.28404,R,ugm-3,0.70073,R,ugm-3,1.13625,R,ugm-3,71.29638,R,ugm-3
03-01-2020,01:00,0.47363,R,ugm-3,0.78918,R,ugm-3,1.51539,R,ugm-3,76.36879,R,ugm-3
03-01-2020,02:00,,,,,,,,,,74.58929,R,ugm-3
03-01-2020,03:00,0.31970,R,ugm-3,1.02520,R,ugm-3,1.51539,R,ugm-3,71.69552,R,ugm-3
03-01-2020,04:00,0.28418,R,ugm-3,1.07966,R,ugm-3,1.51539,R,ugm-3,72.79316,R,ugm-3
03-01-2020,05:00,0.49731,R,ugm-3,1.23996,R,ugm-3,2.00249,R,ugm-3,71.39617,R,ugm-3
03-01-2020,06:00,0.42626,R,ugm-3,1.56538,R,ugm-3,2.21897,R,ugm-3,72.19445,R,ugm-3
03-01-2020,07:00,0.56835,R,ugm-3,1.99697,R,ugm-3,2.86843,R,ugm-3,71.64563,R,ugm-3
03-01-2020,08:00,0.46179,R,ugm-3,2.64746,R,ugm-3,3.35552,R,ugm-3,70.14886,R,ugm-3
03-01-2020,09:00,0.74596,R,ugm-3,2.96942,R,ugm-3,4.11322,R,ugm-3,69.74972,R,ugm-3
03-01-2020,10:00,0.56835,R,ugm-3,3.07939,R,ugm-3,3.95085,R,ugm-3,69.89939,R,ugm-3
03-01-2020,11:00,0.63940,R,ugm-3,2.59161,R,ugm-3,3.57200,R,ugm-3,70.79746,R,ugm-3
03-01-2020,12:00,0.85253,R,ugm-3,2.80602,R,ugm-3,4.11322,R,ugm-3,70.54800,R,ugm-3
03-01-2020,13:00,0.60387,R,ugm-3,2.32135,R,ugm-3,3.24728,R,ugm-3,73.39187,R,ugm-3
03-01-2020,14:00,0.49731,R,ugm-3,1.83529,R,ugm-3,2.59782,R,ugm-3,73.89079,R,ugm-3
03-01-2020,15:00,0.46179,R,ugm-3,2.59334,R,ugm-3,3.30140,R,ugm-3,72.64348,R,ugm-3
03-01-2020,16:00,0.42626,R,ugm-3,3.67610,R,ugm-3,4.32970,R,ugm-3,71.24649,R,ugm-3
03-01-2020,17:00,0.35522,R,ugm-3,2.81086,R,ugm-3,3.35552,R,ugm-3,73.14241,R,ugm-3
03-01-2020,18:00,0.39074,R,ugm-3,1.78221,R,ugm-3,2.38134,R,ugm-3,74.63918,R,ugm-3
03-01-2020,19:00,0.42626,R,ugm-3,1.34889,R,ugm-3,2.00249,R,ugm-3,76.73467,R,ugm-3
03-01-2020,20:00,0.42626,R,ugm-3,1.07829,R,ugm-3,1.73188,R,ugm-3,74.88864,R,ugm-3
03-01-2020,21:00,0.39074,R,ugm-3,1.07863,R,ugm-3,1.67776,R,ugm-3,75.23789,R,ugm-3
03-01-2020,22:00,0.46179,R,ugm-3,0.75321,R,ugm-3,1.46127,R,ugm-3,74.68907,R,ugm-3
03-01-2020,23:00,0.39074,R,ugm-3,0.86214,R,ugm-3,1.46127,R,ugm-3,75.68692,R,ugm-3
03-01-2020,24:00,0.28418,R,ugm-3,0.64670,R,ugm-3,1.08243,R,ugm-3,76.28563,R,ugm-3
04-01-2020,01:00,0.37909,R,ugm-3,0.93453,R,ugm-3,1.51579,R,ugm-3,75.83660,R,ugm-3
04-01-2020,02:00,,,,,,,,,,74.14026,R,ugm-3
04-01-2020,03:00,0.31986,R,ugm-3,0.26746,R,ugm-3,0.75790,R,ugm-3,71.94499,R,ugm-3
04-01-2020,04:00,0.39094,R,ugm-3,0.26674,R,ugm-3,0.86617,R,ugm-3,73.64133,R,ugm-3
04-01-2020,05:00,0.35540,R,ugm-3,0.21297,R,ugm-3,0.75790,R,ugm-3,74.24004,R,ugm-3
04-01-2020,06:00,0.39094,R,ugm-3,0.48329,R,ugm-3,1.08271,R,ugm-3,73.74112,R,ugm-3
04-01-2020,07:00,0.39094,R,ugm-3,0.48329,R,ugm-3,1.08271,R,ugm-3,74.38972,R,ugm-3
04-01-2020,08:00,0.24878,R,ugm-3,0.64712,R,ugm-3,1.02857,R,ugm-3,73.84090,R,ugm-3
04-01-2020,09:00,0.28432,R,ugm-3,1.02571,R,ugm-3,1.46166,R,ugm-3,73.79101,R,ugm-3
04-01-2020,10:00,0.17770,R,ugm-3,1.24333,R,ugm-3,1.51579,R,ugm-3,72.09466,R,ugm-3
04-01-2020,11:00,0.31986,R,ugm-3,1.51257,R,ugm-3,2.00301,R,ugm-3,71.74542,R,ugm-3
04-01-2020,12:00,0.39094,R,ugm-3,1.34945,R,ugm-3,1.94888,R,ugm-3,71.49595,R,ugm-3
04-01-2020,13:00,0.39094,R,ugm-3,1.72840,R,ugm-3,2.32782,R,ugm-3,71.44606,R,ugm-3
04-01-2020,14:00,0.14216,R,ugm-3,1.35196,R,ugm-3,1.56993,R,ugm-3,71.99488,R,ugm-3
04-01-2020,15:00,0.35540,R,ugm-3,1.72876,R,ugm-3,2.27369,R,ugm-3,68.75187,R,ugm-3
04-01-2020,16:00,0.42647,R,ugm-3,1.40323,R,ugm-3,2.05715,R,ugm-3,68.45251,R,ugm-3
04-01-2020,17:00,0.21324,R,ugm-3,1.45951,R,ugm-3,1.78647,R,ugm-3,68.55230,R,ugm-3
04-01-2020,18:00,0.56863,R,ugm-3,1.67248,R,ugm-3,2.54437,R,ugm-3,67.20520,R,ugm-3
04-01-2020,19:00,0.35540,R,ugm-3,1.40395,R,ugm-3,1.94888,R,ugm-3,70.14886,R,ugm-3
04-01-2020,20:00,0.21324,R,ugm-3,1.51365,R,ugm-3,1.84061,R,ugm-3,68.75187,R,ugm-3
04-01-2020,21:00,0.28432,R,ugm-3,1.94602,R,ugm-3,2.38196,R,ugm-3,64.91014,R,ugm-3
04-01-2020,22:00,0.28432,R,ugm-3,1.29639,R,ugm-3,1.73234,R,ugm-3,63.91229,R,ugm-3
04-01-2020,23:00,0.31986,R,ugm-3,1.18776,R,ugm-3,1.67820,R,ugm-3,64.26154,R,ugm-3
04-01-2020,24:00,0.21324,R,ugm-3,0.80989,R,ugm-3,1.13685,R,ugm-3,63.21380,R,ugm-3
05-01-2020,01:00,0.23705,R,ugm-3,0.57513,R,ugm-3,0.93859,R,ugm-3,64.72720,R,ugm-3
05-01-2020,02:00,,,,,,,,,,68.80176,R,ugm-3
05-01-2020,03:00,0.21334,R,ugm-3,0.21438,R,ugm-3,0.54150,R,ugm-3,73.09251,R,ugm-3
05-01-2020,04:00,0.39113,R,ugm-3,0.26667,R,ugm-3,0.86640,R,ugm-3,73.44176,R,ugm-3
05-01-2020,05:00,0.39113,R,ugm-3,0.37497,R,ugm-3,0.97469,R,ugm-3,71.24649,R,ugm-3
05-01-2020,06:00,0.28446,R,ugm-3,0.43023,R,ugm-3,0.86640,R,ugm-3,70.89724,R,ugm-3
05-01-2020,07:00,0.35557,R,ugm-3,0.53779,R,ugm-3,1.08299,R,ugm-3,68.15316,R,ugm-3
05-01-2020,08:00,0.39113,R,ugm-3,0.53742,R,ugm-3,1.13714,R,ugm-3,69.69982,R,ugm-3
05-01-2020,09:00,0.24890,R,ugm-3,0.48475,R,ugm-3,0.86640,R,ugm-3,71.89509,R,ugm-3
05-01-2020,10:00,0.10667,R,ugm-3,1.02773,R,ugm-3,1.19129,R,ugm-3,66.50670,R,ugm-3
05-01-2020,11:00,0.46224,R,ugm-3,1.02403,R,ugm-3,1.73279,R,ugm-3,66.05767,R,ugm-3
05-01-2020,12:00,0.35557,R,ugm-3,1.07929,R,ugm-3,1.62449,R,ugm-3,64.41122,R,ugm-3
05-01-2020,13:00,0.56891,R,ugm-3,1.18537,R,ugm-3,2.05769,R,ugm-3,64.91014,R,ugm-3
05-01-2020,14:00,0.35557,R,ugm-3,1.45834,R,ugm-3,2.00354,R,ugm-3,65.65853,R,ugm-3
05-01-2020,15:00,0.24890,R,ugm-3,1.45945,R,ugm-3,1.84109,R,ugm-3,64.26154,R,ugm-3
05-01-2020,16:00,0.46224,R,ugm-3,1.61968,R,ugm-3,2.32844,R,ugm-3,63.26369,R,ugm-3
05-01-2020,17:00,0.32001,R,ugm-3,1.72946,R,ugm-3,2.22014,R,ugm-3,61.81681,R,ugm-3
05-01-2020,18:00,0.32001,R,ugm-3,1.67531,R,ugm-3,2.16599,R,ugm-3,58.57380,R,ugm-3
05-01-2020,19:00,0.39113,R,ugm-3,1.72871,R,ugm-3,2.32844,R,ugm-3,57.32648,R,ugm-3
05-01-2020,20:00,0.42669,R,ugm-3,1.29515,R,ugm-3,1.94939,R,ugm-3,57.92519,R,ugm-3
05-01-2020,21:00,0.42669,R,ugm-3,1.29515,R,ugm-3,1.94939,R,ugm-3,59.67143,R,ugm-3
05-01-2020,22:00,0.28446,R,ugm-3,1.29663,R,ugm-3,1.73279,R,ugm-3,59.77122,R,ugm-3
05-01-2020,23:00,0.21334,R,ugm-3,1.08077,R,ugm-3,1.40789,R,ugm-3,59.42197,R,ugm-3
05-01-2020,24:00,0.35557,R,ugm-3,1.13344,R,ugm-3,1.67864,R,ugm-3,63.01423,R,ugm-3
06-01-2020,01:00,0.42690,R,ugm-3,0.71759,R,ugm-3,1.37215,R,ugm-3,73.84090,R,ugm-3
06-01-2020,02:00,,,,,,,,,,78.28133,R,ugm-3
06-01-2020,03:00,0.46247,R,ugm-3,0.32000,R,ugm-3,1.02911,R,ugm-3,79.77811,R,ugm-3
06-01-2020,04:00,0.32017,R,ugm-3,0.48403,R,ugm-3,0.97495,R,ugm-3,77.68262,R,ugm-3
06-01-2020,05:00,0.56919,R,ugm-3,0.69800,R,ugm-3,1.57075,R,ugm-3,77.63273,R,ugm-3
06-01-2020,06:00,0.32017,R,ugm-3,0.59236,R,ugm-3,1.08328,R,ugm-3,77.68262,R,ugm-3
06-01-2020,07:00,0.39132,R,ugm-3,0.91657,R,ugm-3,1.51659,R,ugm-3,75.53725,R,ugm-3
06-01-2020,08:00,0.42690,R,ugm-3,1.18701,R,ugm-3,1.84157,R,ugm-3,76.68477,R,ugm-3
06-01-2020,09:00,0.49804,R,ugm-3,1.45706,R,ugm-3,2.22072,R,ugm-3,77.93209,R,ugm-3
06-01-2020,10:00,0.32017,R,ugm-3,1.67563,R,ugm-3,2.16656,R,ugm-3,74.14026,R,ugm-3
06-01-2020,11:00,0.49804,R,ugm-3,1.61955,R,ugm-3,2.38321,R,ugm-3,73.09251,R,ugm-3
06-01-2020,12:00,0.60477,R,ugm-3,1.78090,R,ugm-3,2.70819,R,ugm-3,71.99488,R,ugm-3
06-01-2020,13:00,0.56919,R,ugm-3,1.99793,R,ugm-3,2.87069,R,ugm-3,72.04477,R,ugm-3
06-01-2020,14:00,0.56919,R,ugm-3,2.86456,R,ugm-3,3.73731,R,ugm-3,68.50240,R,ugm-3
06-01-2020,15:00,0.49804,R,ugm-3,2.91949,R,ugm-3,3.68314,R,ugm-3,69.05122,R,ugm-3
06-01-2020,16:00,0.32017,R,ugm-3,2.16311,R,ugm-3,2.65403,R,ugm-3,71.74542,R,ugm-3
06-01-2020,17:00,0.35575,R,ugm-3,2.05440,R,ugm-3,2.59987,R,ugm-3,70.39832,R,ugm-3
06-01-2020,18:00,0.39132,R,ugm-3,1.67487,R,ugm-3,2.27488,R,ugm-3,69.89939,R,ugm-3
06-01-2020,19:00,0.39132,R,ugm-3,1.24156,R,ugm-3,1.84157,R,ugm-3,72.39402,R,ugm-3
06-01-2020,20:00,0.28460,R,ugm-3,1.02605,R,ugm-3,1.46242,R,ugm-3,73.89079,R,ugm-3
06-01-2020,21:00,0.39132,R,ugm-3,0.69992,R,ugm-3,1.29993,R,ugm-3,73.64133,R,ugm-3
06-01-2020,22:00,0.28460,R,ugm-3,1.24270,R,ugm-3,1.67908,R,ugm-3,68.05337,R,ugm-3
06-01-2020,23:00,0.28460,R,ugm-3,1.02605,R,ugm-3,1.46242,R,ugm-3,68.50240,R,ugm-3
06-01-2020,24:00,0.28460,R,ugm-3,0.75523,R,ugm-3,1.19160,R,ugm-3,68.75187,R,ugm-3
07-01-2020,01:00,0.42711,R,ugm-3,1.22329,R,ugm-3,1.87817,R,ugm-3,63.99545,R,ugm-3
07-01-2020,02:00,,,,,,,,,,65.05982,R,ugm-3
07-01-2020,03:00,0.24915,R,ugm-3,1.18915,R,ugm-3,1.57117,R,ugm-3,64.61079,R,ugm-3
07-01-2020,04:00,0.39151,R,ugm-3,1.07921,R,ugm-3,1.67952,R,ugm-3,64.16176,R,ugm-3
07-01-2020,05:00,0.39151,R,ugm-3,0.86250,R,ugm-3,1.46281,R,ugm-3,67.60434,R,ugm-3
07-01-2020,06:00,0.42711,R,ugm-3,1.07881,R,ugm-3,1.73370,R,ugm-3,67.95359,R,ugm-3
07-01-2020,07:00,0.46270,R,ugm-3,1.72855,R,ugm-3,2.43801,R,ugm-3,67.20520,R,ugm-3
07-01-2020,08:00,0.42711,R,ugm-3,1.34970,R,ugm-3,2.00459,R,ugm-3,68.05337,R,ugm-3
07-01-2020,09:00,0.49829,R,ugm-3,1.83651,R,ugm-3,2.60055,R,ugm-3,68.65208,R,ugm-3
07-01-2020,10:00,0.49829,R,ugm-3,2.37829,R,ugm-3,3.14233,R,ugm-3,67.15531,R,ugm-3
07-01-2020,11:00,0.42711,R,ugm-3,1.94566,R,ugm-3,2.60055,R,ugm-3,68.05337,R,ugm-3
07-01-2020,12:00,0.49829,R,ugm-3,2.26994,R,ugm-3,3.03397,R,ugm-3,67.50455,R,ugm-3
07-01-2020,13:00,0.42711,R,ugm-3,1.94566,R,ugm-3,2.60055,R,ugm-3,69.20090,R,ugm-3
07-01-2020,14:00,0.35592,R,ugm-3,1.51303,R,ugm-3,2.05877,R,ugm-3,68.55230,R,ugm-3
07-01-2020,15:00,0.46270,R,ugm-3,1.83691,R,ugm-3,2.54637,R,ugm-3,68.40262,R,ugm-3
07-01-2020,16:00,0.35592,R,ugm-3,2.05481,R,ugm-3,2.60055,R,ugm-3,67.45466,R,ugm-3
07-01-2020,17:00,0.28474,R,ugm-3,1.78471,R,ugm-3,2.22130,R,ugm-3,64.76047,R,ugm-3
07-01-2020,18:00,0.46270,R,ugm-3,1.62020,R,ugm-3,2.32966,R,ugm-3,62.11616,R,ugm-3
07-01-2020,19:00,0.10678,R,ugm-3,1.56998,R,ugm-3,1.73370,R,ugm-3,60.46971,R,ugm-3
07-01-2020,20:00,0.39151,R,ugm-3,0.97085,R,ugm-3,1.57117,R,ugm-3,67.15531,R,ugm-3
07-01-2020,21:00,0.46270,R,ugm-3,0.64499,R,ugm-3,1.35445,R,ugm-3,68.55230,R,ugm-3
07-01-2020,22:00,0.39151,R,ugm-3,0.37489,R,ugm-3,0.97521,R,ugm-3,68.70197,R,ugm-3
07-01-2020,23:00,0.32033,R,ugm-3,0.32151,R,ugm-3,0.81267,R,ugm-3,67.55445,R,ugm-3
07-01-2020,24:00,0.32033,R,ugm-3,0.26733,R,ugm-3,0.75849,R,ugm-3,71.64563,R,ugm-3
08-01-2020,01:00,0.28488,R,ugm-3,0.43027,R,ugm-3,0.86708,R,ugm-3,75.30441,R,ugm-3
08-01-2020,02:00,,,,,,,,,,78.73037,R,ugm-3
08-01-2020,03:00,0.32049,R,ugm-3,0.21309,R,ugm-3,0.70450,R,ugm-3,79.72822,R,ugm-3
08-01-2020,04:00,0.28488,R,ugm-3,0.26770,R,ugm-3,0.70450,R,ugm-3,81.12521,R,ugm-3
08-01-2020,05:00,0.42732,R,ugm-3,0.37445,R,ugm-3,1.02965,R,ugm-3,77.93209,R,ugm-3
08-01-2020,06:00,0.42732,R,ugm-3,0.59121,R,ugm-3,1.24642,R,ugm-3,77.98198,R,ugm-3
08-01-2020,07:00,0.39171,R,ugm-3,1.07935,R,ugm-3,1.67996,R,ugm-3,77.03402,R,ugm-3
08-01-2020,08:00,0.21366,R,ugm-3,1.35236,R,ugm-3,1.67996,R,ugm-3,77.73252,R,ugm-3
08-01-2020,09:00,0.42732,R,ugm-3,2.75890,R,ugm-3,3.41411,R,ugm-3,73.09251,R,ugm-3
08-01-2020,10:00,0.60537,R,ugm-3,4.22005,R,ugm-3,5.14827,R,ugm-3,72.44391,R,ugm-3
08-01-2020,11:00,0.67658,R,ugm-3,2.21412,R,ugm-3,3.25154,R,ugm-3,75.73682,R,ugm-3
08-01-2020,12:00,0.60537,R,ugm-3,2.59429,R,ugm-3,3.52250,R,ugm-3,72.79316,R,ugm-3
08-01-2020,13:00,0.49854,R,ugm-3,1.83682,R,ugm-3,2.60123,R,ugm-3,72.99273,R,ugm-3
08-01-2020,14:00,0.39171,R,ugm-3,1.51289,R,ugm-3,2.11350,R,ugm-3,76.33553,R,ugm-3
08-01-2020,15:00,0.64097,R,ugm-3,2.70226,R,ugm-3,3.68507,R,ugm-3,72.64348,R,ugm-3
08-01-2020,16:00,0.71219,R,ugm-3,3.02660,R,ugm-3,4.11861,R,ugm-3,69.55015,R,ugm-3
08-01-2020,17:00,0.53415,R,ugm-3,3.40799,R,ugm-3,4.22700,R,ugm-3,69.74972,R,ugm-3
08-01-2020,18:00,0.49854,R,ugm-3,2.75809,R,ugm-3,3.52250,R,ugm-3,71.29638,R,ugm-3
08-01-2020,19:00,0.49854,R,ugm-3,5.14255,R,ugm-3,5.90696,R,ugm-3,65.80821,R,ugm-3
08-01-2020,20:00,0.39171,R,ugm-3,3.68058,R,ugm-3,4.28119,R,ugm-3,64.86025,R,ugm-3
08-01-2020,21:00,0.32049,R,ugm-3,5.63232,R,ugm-3,6.12373,R,ugm-3,55.03143,R,ugm-3
08-01-2020,22:00,0.42732,R,ugm-3,5.73948,R,ugm-3,6.39469,R,ugm-3,50.64089,R,ugm-3
08-01-2020,23:00,0.39171,R,ugm-3,2.97608,R,ugm-3,3.57669,R,ugm-3,57.32648,R,ugm-3
08-01-2020,24:00,0.42732,R,ugm-3,2.92148,R,ugm-3,3.57669,R,ugm-3,57.32648,R,ugm-3
09-01-2020,01:00,0.57004,R,ugm-3,2.52290,R,ugm-3,3.39694,R,ugm-3,57.60921,R,ugm-3
09-01-2020,02:00,,,,,,,,,,47.04863,R,ugm-3
09-01-2020,03:00,0.57004,R,ugm-3,3.67930,R,ugm-3,4.55335,R,ugm-3,44.60390,R,ugm-3
09-01-2020,04:00,0.42753,R,ugm-3,7.85489,R,ugm-3,8.51042,R,ugm-3,35.52346,R,ugm-3
09-01-2020,05:00,0.35627,R,ugm-3,4.49493,R,ugm-3,5.04120,R,ugm-3,48.24605,R,ugm-3
09-01-2020,06:00,0.60566,R,ugm-3,6.17238,R,ugm-3,7.10105,R,ugm-3,48.49551,R,ugm-3
09-01-2020,07:00,1.06882,R,ugm-3,11.75017,R,ugm-3,13.38900,R,ugm-3,51.23960,R,ugm-3
09-01-2020,08:00,1.03319,R,ugm-3,14.40671,R,ugm-3,15.99091,R,ugm-3,61.01853,R,ugm-3
09-01-2020,09:00,1.56760,R,ugm-3,17.49016,R,ugm-3,19.89378,R,ugm-3,62.36563,R,ugm-3
09-01-2020,10:00,1.24695,R,ugm-3,13.10323,R,ugm-3,15.01519,R,ugm-3,62.91444,R,ugm-3
09-01-2020,11:00,1.38946,R,ugm-3,14.51091,R,ugm-3,16.64139,R,ugm-3,57.32648,R,ugm-3
09-01-2020,12:00,1.35383,R,ugm-3,13.58982,R,ugm-3,15.66567,R,ugm-3,61.81681,R,ugm-3
09-01-2020,13:00,1.71011,R,ugm-3,14.12768,R,ugm-3,16.74980,R,ugm-3,58.22455,R,ugm-3
09-01-2020,14:00,1.46072,R,ugm-3,11.90816,R,ugm-3,14.14789,R,ugm-3,56.02928,R,ugm-3
09-01-2020,15:00,2.42265,R,ugm-3,17.69688,R,ugm-3,21.41156,R,ugm-3,49.59315,R,ugm-3
09-01-2020,16:00,2.06638,R,ugm-3,22.79650,R,ugm-3,25.96490,R,ugm-3,42.25895,R,ugm-3
09-01-2020,17:00,2.52953,R,ugm-3,26.53127,R,ugm-3,30.40983,R,ugm-3,42.80777,R,ugm-3
09-01-2020,18:00,1.10444,R,ugm-3,19.17604,R,ugm-3,20.86950,R,ugm-3,47.69723,R,ugm-3
09-01-2020,19:00,0.64129,R,ugm-3,15.33285,R,ugm-3,16.31615,R,ugm-3,48.24605,R,ugm-3
09-01-2020,20:00,0.57004,R,ugm-3,12.67758,R,ugm-3,13.55162,R,ugm-3,51.04003,R,ugm-3
09-01-2020,21:00,0.42753,R,ugm-3,8.18012,R,ugm-3,8.83566,R,ugm-3,55.38068,R,ugm-3
09-01-2020,22:00,0.39190,R,ugm-3,5.25340,R,ugm-3,5.85430,R,ugm-3,58.17466,R,ugm-3
09-01-2020,23:00,0.49878,R,ugm-3,5.57737,R,ugm-3,6.34216,R,ugm-3,54.73207,R,ugm-3
09-01-2020,24:00,0.32065,R,ugm-3,3.79066,R,ugm-3,4.28231,R,ugm-3,59.27229,R,ugm-3
10-01-2020,01:00,0.38021,R,ugm-3,4.76679,R,ugm-3,5.34978,R,ugm-3,53.88390,R,ugm-3
10-01-2020,02:00,,,,,,,,,,50.34153,R,ugm-3
10-01-2020,03:00,0.89112,R,ugm-3,4.27259,R,ugm-3,5.63895,R,ugm-3,54.53250,R,ugm-3
10-01-2020,04:00,0.57032,R,ugm-3,3.46318,R,ugm-3,4.33766,R,ugm-3,58.02498,R,ugm-3
10-01-2020,05:00,0.60596,R,ugm-3,3.57119,R,ugm-3,4.50032,R,ugm-3,54.03358,R,ugm-3
10-01-2020,06:00,0.42774,R,ugm-3,3.73602,R,ugm-3,4.39188,R,ugm-3,53.23530,R,ugm-3
10-01-2020,07:00,0.71290,R,ugm-3,3.89521,R,ugm-3,4.98830,R,ugm-3,57.62584,R,ugm-3
10-01-2020,08:00,0.78419,R,ugm-3,5.84629,R,ugm-3,7.04869,R,ugm-3,53.58455,R,ugm-3
10-01-2020,09:00,0.53467,R,ugm-3,6.12043,R,ugm-3,6.94025,R,ugm-3,55.63014,R,ugm-3
10-01-2020,10:00,0.53467,R,ugm-3,4.27693,R,ugm-3,5.09674,R,ugm-3,62.31573,R,ugm-3
10-01-2020,11:00,0.96241,R,ugm-3,6.38633,R,ugm-3,7.86200,R,ugm-3,59.47186,R,ugm-3
10-01-2020,12:00,1.21192,R,ugm-3,6.16641,R,ugm-3,8.02466,R,ugm-3,57.92519,R,ugm-3
10-01-2020,13:00,1.10499,R,ugm-3,5.19174,R,ugm-3,6.88603,R,ugm-3,59.57165,R,ugm-3
10-01-2020,14:00,0.74854,R,ugm-3,5.03341,R,ugm-3,6.18116,R,ugm-3,61.31788,R,ugm-3
10-01-2020,15:00,0.60596,R,ugm-3,3.30009,R,ugm-3,4.22921,R,ugm-3,66.85595,R,ugm-3
10-01-2020,16:00,0.46338,R,ugm-3,3.08494,R,ugm-3,3.79545,R,ugm-3,67.15531,R,ugm-3
10-01-2020,17:00,0.39209,R,ugm-3,3.51957,R,ugm-3,4.12077,R,ugm-3,68.95144,R,ugm-3
10-01-2020,18:00,0.46338,R,ugm-3,2.05475,R,ugm-3,2.76526,R,ugm-3,74.93854,R,ugm-3
10-01-2020,19:00,0.49903,R,ugm-3,1.56633,R,ugm-3,2.33149,R,ugm-3,75.68692,R,ugm-3
10-01-2020,20:00,0.24951,R,ugm-3,0.97294,R,ugm-3,1.35552,R,ugm-3,77.78241,R,ugm-3
10-01-2020,21:00,0.24951,R,ugm-3,0.64761,R,ugm-3,1.03019,R,ugm-3,78.03187,R,ugm-3
10-01-2020,22:00,0.46338,R,ugm-3,0.42813,R,ugm-3,1.13863,R,ugm-3,77.03402,R,ugm-3
10-01-2020,23:00,0.46338,R,ugm-3,0.31968,R,ugm-3,1.03019,R,ugm-3,75.83660,R,ugm-3
10-01-2020,24:00,0.21387,R,ugm-3,0.37694,R,ugm-3,0.70487,R,ugm-3,74.28993,R,ugm-3
11-01-2020,01:00,0.28530,R,ugm-3,0.43031,R,ugm-3,0.86776,R,ugm-3,73.64133,R,ugm-3
11-01-2020,02:00,,,,,,,,,,72.19445,R,ugm-3
11-01-2020,03:00,0.35662,R,ugm-3,0.48365,R,ugm-3,1.03046,R,ugm-3,71.99488,R,ugm-3
11-01-2020,04:00,0.46361,R,ugm-3,0.48231,R,ugm-3,1.19317,R,ugm-3,72.89294,R,ugm-3
11-01-2020,05:00,0.39229,R,ugm-3,0.26626,R,ugm-3,0.86776,R,ugm-3,72.74327,R,ugm-3
11-01-2020,06:00,0.42795,R,ugm-3,0.42852,R,ugm-3,1.08470,R,ugm-3,72.29423,R,ugm-3
11-01-2020,07:00,0.35662,R,ugm-3,0.59212,R,ugm-3,1.13893,R,ugm-3,72.79316,R,ugm-3
11-01-2020,08:00,0.42795,R,ugm-3,0.86240,R,ugm-3,1.51858,R,ugm-3,71.19660,R,ugm-3
11-01-2020,09:00,0.42795,R,ugm-3,0.69970,R,ugm-3,1.35587,R,ugm-3,70.79746,R,ugm-3
11-01-2020,10:00,0.39229,R,ugm-3,0.64591,R,ugm-3,1.24740,R,ugm-3,71.39617,R,ugm-3
11-01-2020,11:00,0.42795,R,ugm-3,0.69970,R,ugm-3,1.35587,R,ugm-3,69.64993,R,ugm-3
11-01-2020,12:00,0.46361,R,ugm-3,0.86195,R,ugm-3,1.57281,R,ugm-3,68.15316,R,ugm-3
11-01-2020,13:00,0.28530,R,ugm-3,1.18960,R,ugm-3,1.62705,R,ugm-3,80.92564,R,ugm-3
11-01-2020,14:00,0.39229,R,ugm-3,1.56790,R,ugm-3,2.16940,R,ugm-3,79.32908,R,ugm-3
11-01-2020,15:00,0.53494,R,ugm-3,1.62035,R,ugm-3,2.44057,R,ugm-3,77.28348,R,ugm-3
11-01-2020,16:00,0.53494,R,ugm-3,1.34918,R,ugm-3,2.16940,R,ugm-3,78.97983,R,ugm-3
11-01-2020,17:00,0.49927,R,ugm-3,1.72927,R,ugm-3,2.49481,R,ugm-3,76.83445,R,ugm-3
11-01-2020,18:00,0.17831,R,ugm-3,2.05869,R,ugm-3,2.33210,R,ugm-3,74.19015,R,ugm-3
11-01-2020,19:00,0.32096,R,ugm-3,1.46032,R,ugm-3,1.95246,R,ugm-3,74.68907,R,ugm-3
11-01-2020,20:00,0.24964,R,ugm-3,0.97310,R,ugm-3,1.35587,R,ugm-3,73.39187,R,ugm-3
11-01-2020,21:00,0.24964,R,ugm-3,0.59346,R,ugm-3,0.97623,R,ugm-3,72.14456,R,ugm-3
11-01-2020,22:00,0.28530,R,ugm-3,0.53878,R,ugm-3,0.97623,R,ugm-3,71.24649,R,ugm-3
11-01-2020,23:00,0.49927,R,ugm-3,0.86151,R,ugm-3,1.62705,R,ugm-3,71.49595,R,ugm-3
11-01-2020,24:00,0.46361,R,ugm-3,0.42808,R,ugm-3,1.13893,R,ugm-3,71.69552,R,ugm-3
12-01-2020,01:00,0.33301,R,ugm-3,0.14038,R,ugm-3,0.65099,R,ugm-3,73.37524,R,ugm-3
12-01-2020,02:00,,,,,,,,,,73.44176,R,ugm-3
12-01-2020,03:00,0.46384,R,ugm-3,0.53652,R,ugm-3,1.24773,R,ugm-3,69.74972,R,ugm-3
12-01-2020,04:00,0.32112,R,ugm-3,1.08085,R,ugm-3,1.57322,R,ugm-3,67.60434,R,ugm-3
12-01-2020,05:00,0.46384,R,ugm-3,1.45876,R,ugm-3,2.16997,R,ugm-3,55.63014,R,ugm-3
12-01-2020,06:00,0.24976,R,ugm-3,2.00400,R,ugm-3,2.38696,R,ugm-3,50.24175,R,ugm-3
12-01-2020,07:00,0.49952,R,ugm-3,1.56680,R,ugm-3,2.33271,R,ugm-3,54.48261,R,ugm-3
12-01-2020,08:00,0.35680,R,ugm-3,2.43662,R,ugm-3,2.98370,R,ugm-3,55.97939,R,ugm-3
12-01-2020,09:00,0.71360,R,ugm-3,2.37778,R,ugm-3,3.47194,R,ugm-3,60.81896,R,ugm-3
12-01-2020,10:00,0.32112,R,ugm-3,0.86385,R,ugm-3,1.35623,R,ugm-3,64.06197,R,ugm-3
12-01-2020,11:00,0.46384,R,ugm-3,1.24176,R,ugm-3,1.95297,R,ugm-3,64.66068,R,ugm-3
12-01-2020,12:00,0.53520,R,ugm-3,2.05458,R,ugm-3,2.87520,R,ugm-3,69.40047,R,ugm-3
12-01-2020,13:00,0.46384,R,ugm-3,1.24176,R,ugm-3,1.95297,R,ugm-3,74.09036,R,ugm-3
12-01-2020,14:00,0.28544,R,ugm-3,1.02706,R,ugm-3,1.46473,R,ugm-3,72.49380,R,ugm-3
12-01-2020,15:00,0.42816,R,ugm-3,1.78471,R,ugm-3,2.44121,R,ugm-3,71.19660,R,ugm-3
12-01-2020,16:00,0.28544,R,ugm-3,0.91856,R,ugm-3,1.35623,R,ugm-3,73.39187,R,ugm-3
12-01-2020,17:00,0.32112,R,ugm-3,2.32858,R,ugm-3,2.82095,R,ugm-3,67.70412,R,ugm-3
12-01-2020,18:00,0.39248,R,ugm-3,2.05641,R,ugm-3,2.65821,R,ugm-3,64.26154,R,ugm-3
12-01-2020,19:00,0.46384,R,ugm-3,2.10975,R,ugm-3,2.82095,R,ugm-3,63.61294,R,ugm-3
12-01-2020,20:00,0.53520,R,ugm-3,1.62059,R,ugm-3,2.44121,R,ugm-3,62.91444,R,ugm-3
12-01-2020,21:00,0.35680,R,ugm-3,2.32812,R,ugm-3,2.87520,R,ugm-3,60.96864,R,ugm-3
12-01-2020,22:00,0.39248,R,ugm-3,2.21916,R,ugm-3,2.82095,R,ugm-3,59.92089,R,ugm-3
12-01-2020,23:00,0.46384,R,ugm-3,2.43524,R,ugm-3,3.14645,R,ugm-3,58.97294,R,ugm-3
12-01-2020,24:00,0.32112,R,ugm-3,2.05733,R,ugm-3,2.54971,R,ugm-3,57.77552,R,ugm-3
13-01-2020,01:00,0.66635,R,ugm-3,2.30643,R,ugm-3,3.32815,R,ugm-3,59.73795,R,ugm-3
13-01-2020,02:00,,,,,,,,,,63.36348,R,ugm-3
13-01-2020,03:00,0.57116,R,ugm-3,1.18624,R,ugm-3,2.06201,R,ugm-3,65.10971,R,ugm-3
13-01-2020,04:00,0.49976,R,ugm-3,1.51277,R,ugm-3,2.27906,R,ugm-3,65.05982,R,ugm-3
13-01-2020,05:00,0.49976,R,ugm-3,1.51277,R,ugm-3,2.27906,R,ugm-3,66.20735,R,ugm-3
13-01-2020,06:00,0.42837,R,ugm-3,1.45945,R,ugm-3,2.11627,R,ugm-3,68.30283,R,ugm-3
13-01-2020,07:00,0.42837,R,ugm-3,2.00208,R,ugm-3,2.65890,R,ugm-3,67.05552,R,ugm-3